Погода в Средней Муе

Россия / Иркутская область     54°20′04″N   103°31′14″E
темп.,
°C
ветер,
м/с
пор.,
м/с
влажн.,
%
обл.,
%
осадки,
мм/ч
давл.,
гПа
погр.,
м
16 июня, ср
ср1623:00+7з1186100 0.1 101325
02:00+7сз2992100 0.8 1013590
05:00+6сз51095100 4.8 1012998
08:00+6зсз61396100 9.3 1012765
11:00+7сз51296100 1.4 1012704
14:00+10сз41089100 1.4 1012929
17:00+15ссз51069100 0.3 10111204
20:00+13ссз4118330 1.3 1012563
17 июня, чт
чт1723:00+10ссз229466 0.5 101329
02:00+8сз119635 0.5 101412
05:00+7ссз119593 0.0 101510
08:00+12сз128136 0.0 1014218
11:00+19сз354492 0.0 10131747
14:00+20сз45358 0.0 10112392
17:00+21с453526 0.0 10102377
20:00+18ссз01524 0.0 101011
18 июня, пт
пт1823:00+11ююв00658 0.0 101010
02:00+9всв11770 0.0 101010
05:00+8в00825 0.0 101010
08:00+15зюз005928 0.0 1008205
11:00+21сз1337100 0.0 10061746
14:00+22сз233198 0.0 10042354
17:00+22ссв223298 0.0 10031797
20:00+19з114971 0.0 100313
19 июня, сб
сб1923:00+15всв115998 0.0 100411
02:00+13вюв1166100 0.0 100310
05:00+13юв0071100 0.0 100310
08:00+15зюз1272100 0.0 1004249
11:00+14зсз2487100 1.4 1004394
14:00+14сз0090100 2.1 1005132
17:00+16юв1373100 0.0 1004530
20:00+17ююв117214 0.0 100334
20 июня, вс
вс2023:00+11в009142 0.0 100410
02:00+10всв119310 0.0 100410
05:00+10вюв009237 0.0 100511
08:00+16юв116944 0.0 1004274
11:00+22ююв234899 0.0 10031301
14:00+23ю244292 0.0 10021681
17:00+21юв125585 0.0 1003389
20:00+20ссв116137 0.0 100315